CCKS11 SCIE-SCTE

Flight info

Callsign CCKS11
Flight time 2h 23m
Altitude 5000
Route PANEX3N PANEX T105 NIA T130 MUBIL Q803 ERUKA T121 SARTO SARTO2A
Aircraft BE58/L-SDFGRY/C

Departure

Time 2026-04-21 15:02
Airport Carriel Sur International Airport (SCIE)

Arrival

Time 2026-04-21 17:26
Airport El Tepual International Airport (SCTE)
Time Latitude Longitude Altitude Speed Heading
2026-04-21 10:55 -36.77730 -73.06247 29 ft 0 kts 329°
2026-04-21 14:57 -36.77728 -73.06249 29 ft 1 kts 329°
2026-04-21 14:57 -36.77715 -73.06259 29 ft 3 kts 329°
2026-04-21 14:58 -36.77690 -73.06267 29 ft 4 kts 352°
2026-04-21 14:58 -36.77654 -73.06272 29 ft 6 kts 359°
2026-04-21 14:58 -36.77610 -73.06273 29 ft 7 kts 359°
2026-04-21 14:58 -36.77552 -73.06267 29 ft 11 kts 18°
2026-04-21 14:59 -36.77447 -73.06212 29 ft 20 kts 24°
2026-04-21 14:59 -36.77301 -73.06130 29 ft 25 kts 25°
2026-04-21 14:59 -36.77137 -73.06023 29 ft 27 kts 26°
2026-04-21 14:59 -36.76962 -73.05920 29 ft 28 kts 25°
2026-04-21 15:00 -36.76838 -73.05867 29 ft 14 kts 344°
2026-04-21 15:00 -36.76778 -73.05955 29 ft 13 kts 286°
2026-04-21 15:00 -36.76812 -73.06049 29 ft 13 kts 210°
2026-04-21 15:00 -36.76871 -73.06084 29 ft 4 kts 204°
2026-04-21 15:01 -36.76876 -73.06086 29 ft 0 kts 204°
2026-04-21 15:01 -36.77038 -73.06178 30 ft 58 kts 205°
2026-04-21 15:02 -36.77582 -73.06491 30 ft 107 kts 205°
2026-04-21 15:02 -36.78319 -73.06927 168 ft 122 kts 206°
2026-04-21 15:02 -36.79102 -73.07430 491 ft 131 kts 207°
2026-04-21 15:02 -36.79923 -73.07961 889 ft 135 kts 207°
2026-04-21 15:03 -36.80754 -73.08498 1301 ft 136 kts 207°
2026-04-21 15:03 -36.81426 -73.08933 1638 ft 136 kts 207°
2026-04-21 15:03 -36.81798 -73.09174 1825 ft 137 kts 207°
2026-04-21 15:04 -36.82645 -73.09722 2251 ft 137 kts 207°
2026-04-21 15:04 -36.83489 -73.10268 2676 ft 137 kts 207°
2026-04-21 15:04 -36.84345 -73.10815 3105 ft 137 kts 204°
2026-04-21 15:04 -36.85278 -73.10884 3499 ft 139 kts 165°
2026-04-21 15:05 -36.86164 -73.10439 3929 ft 139 kts 158°
2026-04-21 15:05 -36.88011 -73.09402 4497 ft 155 kts 158°
2026-04-21 15:05 -36.89009 -73.08854 4757 ft 160 kts 158°
2026-04-21 15:06 -36.90039 -73.08301 5014 ft 163 kts 158°
2026-04-21 15:06 -36.91098 -73.07744 5270 ft 166 kts 159°
2026-04-21 15:06 -36.92165 -73.07197 5519 ft 164 kts 159°
2026-04-21 15:06 -36.93209 -73.06675 5758 ft 156 kts 160°
2026-04-21 15:07 -36.94204 -73.06191 5947 ft 154 kts 160°
2026-04-21 15:07 -36.95210 -73.05716 6063 ft 156 kts 161°
2026-04-21 15:07 -36.96247 -73.05241 6100 ft 162 kts 161°
2026-04-21 15:07 -36.97312 -73.04772 6216 ft 161 kts 163°
2026-04-21 15:08 -36.98375 -73.04403 6385 ft 153 kts 168°
2026-04-21 15:08 -36.99403 -73.04178 6552 ft 148 kts 173°
2026-04-21 15:08 -37.00424 -73.04058 6722 ft 143 kts 177°
2026-04-21 15:08 -37.01398 -73.04009 6885 ft 139 kts 180°
2026-04-21 15:09 -37.02357 -73.04003 7022 ft 139 kts 181°
2026-04-21 15:09 -37.03337 -73.04023 7092 ft 143 kts 182°
2026-04-21 15:09 -37.04357 -73.04061 7106 ft 148 kts 182°
2026-04-21 15:09 -37.05357 -73.04105 7107 ft 152 kts 182°
2026-04-21 15:10 -37.06438 -73.04158 7105 ft 155 kts 183°
2026-04-21 15:10 -37.07521 -73.04213 7103 ft 157 kts 183°
2026-04-21 15:10 -37.08632 -73.04270 7102 ft 158 kts 183°
2026-04-21 15:10 -37.09764 -73.04329 7101 ft 159 kts 183°
2026-04-21 15:11 -37.10874 -73.04388 7101 ft 160 kts 183°
2026-04-21 15:11 -37.11981 -73.04446 7100 ft 160 kts 183°
2026-04-21 15:11 -37.13088 -73.04504 7100 ft 160 kts 183°
2026-04-21 15:11 -37.14203 -73.04563 7100 ft 160 kts 183°
2026-04-21 15:12 -37.15319 -73.04622 7100 ft 160 kts 183°
2026-04-21 15:12 -37.16442 -73.04682 7100 ft 160 kts 183°
2026-04-21 15:12 -37.17548 -73.04740 7100 ft 160 kts 183°
2026-04-21 15:12 -37.18657 -73.04799 7100 ft 160 kts 183°
2026-04-21 15:13 -37.19426 -73.04840 7100 ft 160 kts 183°
2026-04-21 15:13 -37.20560 -73.04900 7100 ft 160 kts 183°
2026-04-21 15:13 -37.21667 -73.04959 7100 ft 160 kts 183°
2026-04-21 15:13 -37.22378 -73.04996 7100 ft 160 kts 183°
2026-04-21 15:14 -37.23494 -73.05056 7100 ft 160 kts 183°
2026-04-21 15:14 -37.24654 -73.05117 7100 ft 160 kts 183°
2026-04-21 15:14 -37.25763 -73.05176 7100 ft 160 kts 183°
2026-04-21 15:14 -37.26750 -73.05228 7100 ft 160 kts 183°
2026-04-21 15:15 -37.27967 -73.05293 7100 ft 160 kts 183°
2026-04-21 15:15 -37.28761 -73.05335 7100 ft 160 kts 183°
2026-04-21 15:15 -37.29871 -73.05394 7100 ft 160 kts 183°
2026-04-21 15:15 -37.30953 -73.05452 7100 ft 160 kts 183°
2026-04-21 15:16 -37.32191 -73.05518 7100 ft 160 kts 183°
2026-04-21 15:16 -37.33303 -73.05581 7100 ft 160 kts 184°
2026-04-21 15:16 -37.34395 -73.05661 7100 ft 160 kts 184°
2026-04-21 15:16 -37.35542 -73.05753 7100 ft 160 kts 184°
2026-04-21 15:17 -37.36649 -73.05846 7100 ft 160 kts 184°
2026-04-21 15:17 -37.37766 -73.05941 7100 ft 160 kts 184°
2026-04-21 15:17 -37.38877 -73.06036 7100 ft 160 kts 184°
2026-04-21 15:17 -37.39996 -73.06132 7100 ft 160 kts 184°
2026-04-21 15:18 -37.41117 -73.06228 7100 ft 160 kts 184°
2026-04-21 15:18 -37.42234 -73.06324 7100 ft 160 kts 184°
2026-04-21 15:18 -37.43344 -73.06420 7100 ft 160 kts 184°
2026-04-21 15:18 -37.44443 -73.06515 7100 ft 160 kts 184°
2026-04-21 15:19 -37.45575 -73.06612 7100 ft 160 kts 184°
2026-04-21 15:19 -37.46680 -73.06708 7100 ft 160 kts 184°
2026-04-21 15:19 -37.47806 -73.06805 7100 ft 160 kts 184°
2026-04-21 15:19 -37.48898 -73.06899 7100 ft 160 kts 184°
2026-04-21 15:20 -37.50026 -73.06997 7100 ft 160 kts 184°
2026-04-21 15:20 -37.51131 -73.07092 7100 ft 160 kts 184°
2026-04-21 15:20 -37.52246 -73.07189 7100 ft 160 kts 184°
2026-04-21 15:20 -37.53362 -73.07285 7100 ft 160 kts 184°
2026-04-21 15:21 -37.54473 -73.07381 7100 ft 160 kts 184°
2026-04-21 15:21 -37.55596 -73.07479 7100 ft 160 kts 184°
2026-04-21 15:21 -37.56699 -73.07574 7100 ft 160 kts 184°
2026-04-21 15:21 -37.57812 -73.07670 7100 ft 160 kts 184°
2026-04-21 15:22 -37.58936 -73.07768 7100 ft 160 kts 184°
2026-04-21 15:22 -37.60042 -73.07864 7100 ft 160 kts 184°
2026-04-21 15:22 -37.61156 -73.07960 7100 ft 160 kts 184°
2026-04-21 15:22 -37.62265 -73.08056 7100 ft 160 kts 184°
2026-04-21 15:23 -37.63382 -73.08153 7100 ft 160 kts 184°
2026-04-21 15:23 -37.64500 -73.08250 7100 ft 160 kts 184°
2026-04-21 15:23 -37.65613 -73.08347 7100 ft 160 kts 184°
2026-04-21 15:23 -37.66716 -73.08443 7100 ft 160 kts 184°
2026-04-21 15:24 -37.67828 -73.08539 7100 ft 160 kts 184°
2026-04-21 15:24 -37.68951 -73.08637 7100 ft 160 kts 184°
2026-04-21 15:24 -37.70063 -73.08733 7100 ft 160 kts 184°
2026-04-21 15:24 -37.71171 -73.08830 7100 ft 160 kts 184°
2026-04-21 15:25 -37.72278 -73.08926 7100 ft 160 kts 184°
2026-04-21 15:25 -37.73397 -73.09023 7100 ft 160 kts 184°
2026-04-21 15:25 -37.74518 -73.09121 7100 ft 160 kts 184°
2026-04-21 15:25 -37.75633 -73.09215 7100 ft 160 kts 183°
2026-04-21 15:26 -37.76654 -73.09103 7103 ft 161 kts 171°
2026-04-21 15:26 -37.77774 -73.08781 7101 ft 161 kts 167°
2026-04-21 15:26 -37.78841 -73.08409 7100 ft 161 kts 165°
2026-04-21 15:26 -37.79924 -73.08009 7100 ft 161 kts 165°
2026-04-21 15:27 -37.81002 -73.07596 7119 ft 162 kts 167°
2026-04-21 15:27 -37.82095 -73.07178 7155 ft 164 kts 167°
2026-04-21 15:27 -37.83186 -73.06759 7161 ft 166 kts 167°
2026-04-21 15:27 -37.84297 -73.06330 7161 ft 168 kts 167°
2026-04-21 15:28 -37.85437 -73.05889 7161 ft 170 kts 167°
2026-04-21 15:28 -37.86566 -73.05451 7160 ft 171 kts 167°
2026-04-21 15:28 -37.87721 -73.05002 7159 ft 171 kts 167°
2026-04-21 15:28 -37.88860 -73.04558 7161 ft 171 kts 167°
2026-04-21 15:29 -37.90000 -73.04114 7160 ft 172 kts 167°
2026-04-21 15:29 -37.91143 -73.03669 7159 ft 172 kts 167°
2026-04-21 15:29 -37.92312 -73.03212 7159 ft 172 kts 167°
2026-04-21 15:29 -37.93439 -73.02773 7160 ft 172 kts 167°
2026-04-21 15:30 -37.94596 -73.02322 7160 ft 172 kts 167°
2026-04-21 15:30 -37.95724 -73.01882 7159 ft 172 kts 167°
2026-04-21 15:30 -37.96886 -73.01428 7159 ft 172 kts 167°
2026-04-21 15:30 -37.98027 -73.00983 7160 ft 172 kts 167°
2026-04-21 15:31 -37.99162 -73.00540 7160 ft 172 kts 167°
2026-04-21 15:31 -38.00281 -73.00103 7159 ft 172 kts 167°
2026-04-21 15:31 -38.01462 -72.99642 7160 ft 172 kts 167°
2026-04-21 15:31 -38.02597 -72.99198 7160 ft 172 kts 167°
2026-04-21 15:32 -38.03747 -72.98748 7159 ft 172 kts 167°
2026-04-21 15:32 -38.04893 -72.98300 7159 ft 172 kts 167°
2026-04-21 15:32 -38.06036 -72.97853 7159 ft 172 kts 167°
2026-04-21 15:32 -38.07183 -72.97404 7159 ft 172 kts 167°
2026-04-21 15:33 -38.08317 -72.96960 7159 ft 172 kts 167°
2026-04-21 15:33 -38.09468 -72.96509 7159 ft 172 kts 167°
2026-04-21 15:33 -38.10606 -72.96064 7159 ft 172 kts 167°
2026-04-21 15:33 -38.11749 -72.95616 7159 ft 172 kts 167°
2026-04-21 15:34 -38.12891 -72.95168 7158 ft 172 kts 167°
2026-04-21 15:34 -38.13986 -72.94738 7159 ft 172 kts 167°
2026-04-21 15:34 -38.14794 -72.94422 7160 ft 172 kts 167°
2026-04-21 15:34 -38.15955 -72.93966 7159 ft 172 kts 167°
2026-04-21 15:35 -38.17092 -72.93520 7159 ft 172 kts 167°
2026-04-21 15:35 -38.18248 -72.93066 7159 ft 172 kts 167°
2026-04-21 15:35 -38.19392 -72.92617 7160 ft 172 kts 167°
2026-04-21 15:35 -38.20534 -72.92168 7159 ft 172 kts 167°
2026-04-21 15:36 -38.21677 -72.91719 7157 ft 172 kts 166°
2026-04-21 15:36 -38.22829 -72.91266 7113 ft 174 kts 167°
2026-04-21 15:36 -38.23993 -72.90808 7102 ft 174 kts 167°
2026-04-21 15:36 -38.25143 -72.90355 7100 ft 173 kts 167°
2026-04-21 15:37 -38.26290 -72.89903 7101 ft 173 kts 167°
2026-04-21 15:37 -38.27444 -72.89450 7100 ft 173 kts 167°
2026-04-21 15:37 -38.28587 -72.89001 7101 ft 172 kts 167°
2026-04-21 15:37 -38.29727 -72.88552 7099 ft 172 kts 167°
2026-04-21 15:38 -38.30881 -72.88098 7100 ft 172 kts 167°
2026-04-21 15:38 -38.32018 -72.87651 7100 ft 172 kts 167°
2026-04-21 15:38 -38.33173 -72.87196 7100 ft 172 kts 167°
2026-04-21 15:38 -38.34309 -72.86749 7100 ft 172 kts 167°
2026-04-21 15:39 -38.35460 -72.86296 7100 ft 172 kts 167°
2026-04-21 15:39 -38.36601 -72.85846 7100 ft 172 kts 167°
2026-04-21 15:39 -38.37751 -72.85393 7100 ft 172 kts 167°
2026-04-21 15:39 -38.38896 -72.84941 7100 ft 172 kts 167°
2026-04-21 15:40 -38.40036 -72.84491 7100 ft 172 kts 167°
2026-04-21 15:40 -38.41176 -72.84041 7100 ft 172 kts 167°
2026-04-21 15:40 -38.42327 -72.83587 7101 ft 172 kts 167°
2026-04-21 15:40 -38.43469 -72.83136 7100 ft 172 kts 167°
2026-04-21 15:41 -38.44606 -72.82687 7101 ft 172 kts 167°
2026-04-21 15:41 -38.45759 -72.82231 7100 ft 172 kts 167°
2026-04-21 15:41 -38.46904 -72.81779 7098 ft 172 kts 167°
2026-04-21 15:41 -38.48046 -72.81327 7100 ft 172 kts 167°
2026-04-21 15:42 -38.49183 -72.80877 7100 ft 172 kts 167°
2026-04-21 15:42 -38.50337 -72.80421 7101 ft 172 kts 167°
2026-04-21 15:42 -38.51480 -72.79968 7099 ft 172 kts 167°
2026-04-21 15:42 -38.52619 -72.79517 7100 ft 172 kts 167°
2026-04-21 15:43 -38.53759 -72.79066 7102 ft 172 kts 167°
2026-04-21 15:43 -38.54902 -72.78613 7100 ft 172 kts 167°
2026-04-21 15:43 -38.56061 -72.78154 7101 ft 172 kts 167°
2026-04-21 15:43 -38.57201 -72.77701 7099 ft 172 kts 166°
2026-04-21 15:44 -38.58344 -72.77248 7101 ft 172 kts 167°
2026-04-21 15:44 -38.59485 -72.76795 7100 ft 172 kts 166°
2026-04-21 15:44 -38.60641 -72.76336 7099 ft 172 kts 167°
2026-04-21 15:44 -38.61783 -72.75883 7100 ft 172 kts 166°
2026-04-21 15:45 -38.62918 -72.75441 7100 ft 171 kts 162°
2026-04-21 15:45 -38.64057 -72.74990 7074 ft 171 kts 162°
2026-04-21 15:45 -38.65200 -72.74533 7070 ft 170 kts 162°
2026-04-21 15:45 -38.66320 -72.74085 7070 ft 169 kts 162°
2026-04-21 15:46 -38.67434 -72.73640 7070 ft 168 kts 162°
2026-04-21 15:46 -38.68550 -72.73195 7070 ft 168 kts 162°
2026-04-21 15:46 -38.69515 -72.72810 7070 ft 168 kts 162°
2026-04-21 15:46 -38.70634 -72.72365 7070 ft 168 kts 162°
2026-04-21 15:47 -38.71755 -72.71918 7070 ft 168 kts 162°
2026-04-21 15:47 -38.72864 -72.71476 7070 ft 168 kts 162°
2026-04-21 15:47 -38.73987 -72.71029 7070 ft 168 kts 162°
2026-04-21 15:47 -38.75096 -72.70587 7070 ft 168 kts 162°
2026-04-21 15:48 -38.76204 -72.70145 7070 ft 167 kts 162°
2026-04-21 15:48 -38.77317 -72.69701 7070 ft 167 kts 162°
2026-04-21 15:48 -38.78427 -72.69258 7070 ft 167 kts 162°
2026-04-21 15:48 -38.79550 -72.68810 7070 ft 167 kts 162°
2026-04-21 15:49 -38.80652 -72.68370 7070 ft 167 kts 162°
2026-04-21 15:49 -38.81775 -72.67921 7070 ft 167 kts 162°
2026-04-21 15:49 -38.82891 -72.67475 7070 ft 167 kts 162°
2026-04-21 15:49 -38.83996 -72.67034 7070 ft 167 kts 162°
2026-04-21 15:50 -38.85103 -72.66591 7070 ft 167 kts 162°
2026-04-21 15:50 -38.86215 -72.66147 7070 ft 167 kts 162°
2026-04-21 15:50 -38.87337 -72.65697 7070 ft 167 kts 162°
2026-04-21 15:50 -38.88443 -72.65255 7070 ft 167 kts 162°
2026-04-21 15:51 -38.89566 -72.64802 7070 ft 167 kts 161°
2026-04-21 15:51 -38.90496 -72.63965 7063 ft 166 kts 125°
2026-04-21 15:51 -38.90826 -72.62565 7087 ft 165 kts 96°
2026-04-21 15:51 -38.90858 -72.61076 7076 ft 166 kts 90°
2026-04-21 15:52 -38.90845 -72.59597 7072 ft 167 kts 90°
2026-04-21 15:52 -38.90842 -72.58113 7071 ft 167 kts 90°
2026-04-21 15:52 -38.90853 -72.56612 7071 ft 167 kts 91°
2026-04-21 15:52 -38.90875 -72.55124 7071 ft 167 kts 91°
2026-04-21 15:53 -38.90903 -72.53628 7070 ft 167 kts 92°
2026-04-21 15:53 -38.90934 -72.52148 7070 ft 167 kts 92°
2026-04-21 15:53 -38.90968 -72.50646 7070 ft 167 kts 92°
2026-04-21 15:53 -38.91003 -72.49159 7070 ft 167 kts 92°
2026-04-21 15:54 -38.91038 -72.47675 7070 ft 167 kts 92°
2026-04-21 15:54 -38.91074 -72.46176 7070 ft 167 kts 92°
2026-04-21 15:54 -38.91109 -72.44688 7070 ft 167 kts 92°
2026-04-21 15:54 -38.91144 -72.43200 7070 ft 167 kts 92°
2026-04-21 15:55 -38.91180 -72.41694 7070 ft 167 kts 92°
2026-04-21 15:55 -38.91215 -72.40207 7070 ft 167 kts 92°
2026-04-21 15:55 -38.91249 -72.38718 7070 ft 167 kts 92°
2026-04-21 15:55 -38.91284 -72.37225 7070 ft 167 kts 92°
2026-04-21 15:56 -38.91318 -72.35737 7070 ft 167 kts 92°
2026-04-21 15:56 -38.91353 -72.34231 7070 ft 167 kts 92°
2026-04-21 15:56 -38.91387 -72.32746 7070 ft 167 kts 92°
2026-04-21 15:56 -38.91421 -72.31265 7070 ft 167 kts 92°
2026-04-21 15:57 -38.91455 -72.29754 7070 ft 167 kts 92°
2026-04-21 15:57 -38.91488 -72.28268 7070 ft 167 kts 92°
2026-04-21 15:57 -38.91522 -72.26783 7070 ft 167 kts 92°
2026-04-21 15:57 -38.91886 -72.25379 7063 ft 167 kts 128°
2026-04-21 15:58 -38.92855 -72.24654 7069 ft 166 kts 169°
2026-04-21 15:58 -38.93977 -72.24908 7093 ft 164 kts 202°
2026-04-21 15:58 -38.95003 -72.25553 7083 ft 166 kts 206°
2026-04-21 15:58 -38.96071 -72.26183 7074 ft 168 kts 202°
2026-04-21 15:59 -38.97148 -72.26719 7072 ft 168 kts 199°
2026-04-21 15:59 -38.98259 -72.27197 7071 ft 168 kts 197°
2026-04-21 15:59 -38.99393 -72.27635 7071 ft 168 kts 195°
2026-04-21 15:59 -39.00519 -72.28042 7071 ft 168 kts 194°
2026-04-21 16:00 -39.01645 -72.28431 7071 ft 168 kts 194°
2026-04-21 16:00 -39.02780 -72.28812 7071 ft 169 kts 194°
2026-04-21 16:00 -39.03913 -72.29187 7071 ft 169 kts 193°
2026-04-21 16:00 -39.05060 -72.29562 7070 ft 169 kts 193°
2026-04-21 16:01 -39.06191 -72.29931 7070 ft 169 kts 193°
2026-04-21 16:01 -39.07324 -72.30299 7070 ft 169 kts 193°
2026-04-21 16:01 -39.08475 -72.30671 7070 ft 169 kts 193°
2026-04-21 16:01 -39.09612 -72.31040 7070 ft 169 kts 193°
2026-04-21 16:02 -39.10742 -72.31405 7070 ft 169 kts 193°
2026-04-21 16:02 -39.11889 -72.31776 7070 ft 169 kts 193°
2026-04-21 16:02 -39.13015 -72.32141 7070 ft 169 kts 193°
2026-04-21 16:02 -39.14151 -72.32508 7070 ft 169 kts 193°
2026-04-21 16:03 -39.15298 -72.32880 7070 ft 169 kts 193°
2026-04-21 16:03 -39.16435 -72.33248 7070 ft 169 kts 193°
2026-04-21 16:03 -39.17564 -72.33614 7070 ft 169 kts 193°
2026-04-21 16:03 -39.18708 -72.33984 7070 ft 169 kts 193°
2026-04-21 16:04 -39.19856 -72.34356 7070 ft 169 kts 193°
2026-04-21 16:04 -39.20985 -72.34722 7070 ft 169 kts 193°
2026-04-21 16:04 -39.22115 -72.35089 7070 ft 169 kts 193°
2026-04-21 16:04 -39.23261 -72.35461 7070 ft 169 kts 193°
2026-04-21 16:05 -39.24388 -72.35818 7073 ft 166 kts 198°
2026-04-21 16:05 -39.25510 -72.36182 7069 ft 164 kts 198°
2026-04-21 16:05 -39.26612 -72.36542 7068 ft 163 kts 198°
2026-04-21 16:05 -39.27703 -72.36899 7105 ft 163 kts 198°
2026-04-21 16:06 -39.28827 -72.37268 6991 ft 170 kts 198°
2026-04-21 16:06 -39.29942 -72.37631 7053 ft 163 kts 198°
2026-04-21 16:06 -39.31042 -72.37988 7066 ft 161 kts 198°
2026-04-21 16:06 -39.32122 -72.38339 7069 ft 161 kts 198°
2026-04-21 16:07 -39.33213 -72.38694 7070 ft 161 kts 198°
2026-04-21 16:07 -39.34296 -72.39047 7071 ft 161 kts 198°
2026-04-21 16:07 -39.35372 -72.39397 7072 ft 160 kts 198°
2026-04-21 16:07 -39.36467 -72.39754 7070 ft 161 kts 198°
2026-04-21 16:08 -39.38275 -72.40343 7070 ft 161 kts 198°
2026-04-21 16:08 -39.39708 -72.40811 7070 ft 160 kts 198°
2026-04-21 16:08 -39.40430 -72.41046 7071 ft 160 kts 198°
2026-04-21 16:09 -39.41870 -72.41516 7070 ft 160 kts 198°
2026-04-21 16:09 -39.42598 -72.41753 7072 ft 160 kts 198°
2026-04-21 16:09 -39.43675 -72.42105 7070 ft 160 kts 198°
2026-04-21 16:09 -39.44768 -72.42462 7070 ft 161 kts 198°
2026-04-21 16:10 -39.45846 -72.42814 7070 ft 161 kts 198°
2026-04-21 16:10 -39.46932 -72.43169 7070 ft 160 kts 198°
2026-04-21 16:10 -39.48008 -72.43520 7071 ft 160 kts 198°
2026-04-21 16:10 -39.49102 -72.43878 7071 ft 161 kts 198°
2026-04-21 16:11 -39.50184 -72.44232 7071 ft 161 kts 198°
2026-04-21 16:11 -39.51259 -72.44584 7071 ft 161 kts 198°
2026-04-21 16:11 -39.52338 -72.44937 7071 ft 161 kts 198°
2026-04-21 16:11 -39.53433 -72.45295 7070 ft 160 kts 198°
2026-04-21 16:12 -39.54499 -72.45644 7071 ft 160 kts 198°
2026-04-21 16:12 -39.55594 -72.46002 7071 ft 160 kts 198°
2026-04-21 16:12 -39.56683 -72.46359 7069 ft 160 kts 198°
2026-04-21 16:12 -39.57757 -72.46712 7070 ft 160 kts 198°
2026-04-21 16:13 -39.58852 -72.47071 7071 ft 160 kts 198°
2026-04-21 16:13 -39.59929 -72.47424 7070 ft 160 kts 198°
2026-04-21 16:13 -39.61010 -72.47778 7070 ft 160 kts 198°
2026-04-21 16:13 -39.62099 -72.48136 7071 ft 160 kts 198°
2026-04-21 16:14 -39.63171 -72.48488 7071 ft 160 kts 198°
2026-04-21 16:14 -39.64150 -72.48808 7066 ft 154 kts 198°
2026-04-21 16:14 -39.64660 -72.48975 7062 ft 152 kts 198°
2026-04-21 16:14 -39.65177 -72.49144 7064 ft 149 kts 198°
2026-04-21 16:15 -39.65674 -72.49307 7064 ft 147 kts 198°
2026-04-21 16:15 -39.66163 -72.49468 7066 ft 146 kts 198°
2026-04-21 16:15 -39.66656 -72.49630 7066 ft 145 kts 198°
2026-04-21 16:15 -39.67146 -72.49792 7067 ft 144 kts 198°
2026-04-21 16:16 -39.67626 -72.49950 7068 ft 143 kts 198°
2026-04-21 16:16 -39.68110 -72.50109 7067 ft 142 kts 198°
2026-04-21 16:16 -39.68587 -72.50266 7068 ft 142 kts 198°
2026-04-21 16:16 -39.69063 -72.50423 7070 ft 141 kts 198°
2026-04-21 16:17 -39.69541 -72.50581 7069 ft 141 kts 198°
2026-04-21 16:17 -39.70022 -72.50739 7068 ft 141 kts 198°
2026-04-21 16:17 -39.70490 -72.50893 7070 ft 141 kts 198°
2026-04-21 16:17 -39.70964 -72.51050 7069 ft 140 kts 198°
2026-04-21 16:18 -39.71436 -72.51205 7071 ft 140 kts 198°
2026-04-21 16:18 -39.71909 -72.51361 7071 ft 140 kts 198°
2026-04-21 16:18 -39.72386 -72.51518 7070 ft 140 kts 198°
2026-04-21 16:18 -39.72861 -72.51675 7070 ft 140 kts 198°
2026-04-21 16:19 -39.73331 -72.51829 7070 ft 140 kts 198°
2026-04-21 16:19 -39.73808 -72.51987 7071 ft 140 kts 198°
2026-04-21 16:19 -39.74274 -72.52140 7071 ft 140 kts 198°
2026-04-21 16:19 -39.74754 -72.52297 7070 ft 140 kts 198°
2026-04-21 16:20 -39.75214 -72.52446 7070 ft 140 kts 198°
2026-04-21 16:20 -39.75706 -72.52605 7070 ft 140 kts 198°
2026-04-21 16:20 -39.76169 -72.52755 7070 ft 140 kts 198°
2026-04-21 16:20 -39.76653 -72.52910 7071 ft 140 kts 198°
2026-04-21 16:21 -39.77119 -72.53061 7071 ft 140 kts 198°
2026-04-21 16:21 -39.77597 -72.53215 7070 ft 140 kts 198°
2026-04-21 16:21 -39.78067 -72.53366 7070 ft 140 kts 198°
2026-04-21 16:21 -39.78543 -72.53519 7071 ft 140 kts 198°
2026-04-21 16:22 -39.79014 -72.53671 7070 ft 140 kts 198°
2026-04-21 16:22 -39.79489 -72.53824 7071 ft 140 kts 198°
2026-04-21 16:22 -39.79959 -72.53976 7071 ft 140 kts 198°
2026-04-21 16:22 -39.80431 -72.54128 7071 ft 140 kts 198°
2026-04-21 16:23 -39.80909 -72.54282 7071 ft 140 kts 198°
2026-04-21 16:23 -39.81380 -72.54433 7070 ft 140 kts 198°
2026-04-21 16:23 -39.81855 -72.54587 7070 ft 140 kts 198°
2026-04-21 16:23 -39.82325 -72.54738 7066 ft 140 kts 198°
2026-04-21 16:24 -39.82801 -72.54891 7095 ft 141 kts 198°
2026-04-21 16:24 -39.83283 -72.55047 7148 ft 146 kts 198°
2026-04-21 16:24 -39.83792 -72.55214 7112 ft 156 kts 198°
2026-04-21 16:24 -39.84334 -72.55391 7095 ft 163 kts 198°
2026-04-21 16:25 -39.84884 -72.55574 7027 ft 167 kts 194°
2026-04-21 16:25 -39.85442 -72.55758 7023 ft 163 kts 193°
2026-04-21 16:25 -39.85987 -72.55934 7050 ft 158 kts 193°
2026-04-21 16:25 -39.86517 -72.56103 7057 ft 156 kts 193°
2026-04-21 16:26 -39.87039 -72.56270 7062 ft 154 kts 193°
2026-04-21 16:26 -39.87559 -72.56435 7065 ft 153 kts 193°
2026-04-21 16:26 -39.88076 -72.56600 7066 ft 152 kts 193°
2026-04-21 16:26 -39.88587 -72.56764 7067 ft 151 kts 193°
2026-04-21 16:27 -39.89101 -72.56929 7068 ft 151 kts 193°
2026-04-21 16:27 -39.89611 -72.57092 7069 ft 150 kts 193°
2026-04-21 16:27 -39.90119 -72.57256 7069 ft 150 kts 193°
2026-04-21 16:27 -39.90620 -72.57417 7070 ft 150 kts 193°
2026-04-21 16:28 -39.91132 -72.57582 7070 ft 150 kts 193°
2026-04-21 16:28 -39.91634 -72.57744 7070 ft 150 kts 193°
2026-04-21 16:28 -39.92143 -72.57908 7070 ft 150 kts 193°
2026-04-21 16:28 -39.92638 -72.58068 7070 ft 149 kts 193°
2026-04-21 16:29 -39.92985 -72.58180 7070 ft 149 kts 193°
2026-04-21 16:29 -39.93654 -72.58396 7070 ft 149 kts 193°
2026-04-21 16:29 -39.94163 -72.58560 7070 ft 149 kts 193°
2026-04-21 16:29 -39.94667 -72.58723 7070 ft 149 kts 193°
2026-04-21 16:30 -39.95169 -72.58886 7070 ft 149 kts 193°
2026-04-21 16:30 -39.95676 -72.59050 7070 ft 149 kts 193°
2026-04-21 16:30 -39.96177 -72.59212 7070 ft 149 kts 193°
2026-04-21 16:30 -39.96681 -72.59375 7070 ft 149 kts 193°
2026-04-21 16:31 -39.97185 -72.59538 7070 ft 149 kts 193°
2026-04-21 16:31 -39.97693 -72.59703 7070 ft 149 kts 193°
2026-04-21 16:31 -39.98193 -72.59865 7070 ft 149 kts 193°
2026-04-21 16:31 -39.98704 -72.60030 7070 ft 149 kts 193°
2026-04-21 16:32 -39.99201 -72.60191 7070 ft 149 kts 193°
2026-04-21 16:32 -39.99710 -72.60356 7070 ft 149 kts 193°
2026-04-21 16:32 -40.00214 -72.60519 7070 ft 149 kts 193°
2026-04-21 16:32 -40.00715 -72.60682 7070 ft 149 kts 193°
2026-04-21 16:33 -40.01223 -72.60846 7070 ft 149 kts 193°
2026-04-21 16:33 -40.01727 -72.61010 7070 ft 149 kts 193°
2026-04-21 16:33 -40.02223 -72.61171 7070 ft 149 kts 193°
2026-04-21 16:33 -40.02730 -72.61335 7070 ft 149 kts 193°
2026-04-21 16:34 -40.03233 -72.61498 7070 ft 149 kts 193°
2026-04-21 16:34 -40.03736 -72.61661 7070 ft 149 kts 193°
2026-04-21 16:34 -40.04240 -72.61825 7070 ft 149 kts 193°
2026-04-21 16:34 -40.04747 -72.61989 7070 ft 149 kts 193°
2026-04-21 16:35 -40.05256 -72.62154 7070 ft 149 kts 193°
2026-04-21 16:35 -40.05757 -72.62317 7070 ft 149 kts 193°
2026-04-21 16:35 -40.06259 -72.62480 7070 ft 149 kts 193°
2026-04-21 16:35 -40.06751 -72.62640 7070 ft 149 kts 193°
2026-04-21 16:36 -40.07082 -72.62747 7070 ft 149 kts 193°
2026-04-21 16:36 -40.07559 -72.62902 7070 ft 149 kts 193°
2026-04-21 16:36 -40.08076 -72.63070 7070 ft 149 kts 193°
2026-04-21 16:36 -40.08572 -72.63231 7070 ft 149 kts 193°
2026-04-21 16:37 -40.09082 -72.63397 7070 ft 149 kts 193°
2026-04-21 16:37 -40.09579 -72.63558 7070 ft 149 kts 193°
2026-04-21 16:37 -40.10082 -72.63722 7070 ft 149 kts 193°
2026-04-21 16:37 -40.10593 -72.63888 7070 ft 149 kts 193°
2026-04-21 16:38 -40.11095 -72.64051 7070 ft 149 kts 193°
2026-04-21 16:38 -40.11603 -72.64216 7070 ft 149 kts 193°
2026-04-21 16:38 -40.12105 -72.64380 7070 ft 149 kts 193°
2026-04-21 16:38 -40.12608 -72.64543 7070 ft 149 kts 193°
2026-04-21 16:39 -40.13109 -72.64706 7070 ft 149 kts 193°
2026-04-21 16:39 -40.13610 -72.64869 7070 ft 149 kts 193°
2026-04-21 16:39 -40.14126 -72.65037 7070 ft 149 kts 193°
2026-04-21 16:39 -40.14632 -72.65202 7070 ft 149 kts 193°
2026-04-21 16:40 -40.15133 -72.65365 7070 ft 149 kts 193°
2026-04-21 16:40 -40.15642 -72.65530 7070 ft 149 kts 193°
2026-04-21 16:40 -40.16146 -72.65694 7070 ft 149 kts 193°
2026-04-21 16:40 -40.16649 -72.65858 7070 ft 149 kts 193°
2026-04-21 16:41 -40.17216 -72.66043 7070 ft 149 kts 193°
2026-04-21 16:41 -40.18218 -72.66369 7070 ft 149 kts 193°
2026-04-21 16:41 -40.19219 -72.66696 7070 ft 149 kts 193°
2026-04-21 16:41 -40.20230 -72.67025 7070 ft 149 kts 193°
2026-04-21 16:42 -40.21247 -72.67357 7070 ft 149 kts 193°
2026-04-21 16:42 -40.22247 -72.67683 7070 ft 149 kts 193°
2026-04-21 16:42 -40.23256 -72.68012 7070 ft 149 kts 193°
2026-04-21 16:42 -40.24265 -72.68341 7070 ft 149 kts 193°
2026-04-21 16:43 -40.25269 -72.68669 7070 ft 149 kts 193°
2026-04-21 16:43 -40.26279 -72.68999 7070 ft 149 kts 193°
2026-04-21 16:43 -40.27290 -72.69329 7070 ft 149 kts 193°
2026-04-21 16:43 -40.28295 -72.69658 7070 ft 149 kts 193°
2026-04-21 16:44 -40.29311 -72.69990 7070 ft 149 kts 193°
2026-04-21 16:44 -40.30316 -72.70318 7070 ft 149 kts 193°
2026-04-21 16:44 -40.31342 -72.70654 7070 ft 149 kts 193°
2026-04-21 16:44 -40.32358 -72.70987 7070 ft 149 kts 193°
2026-04-21 16:45 -40.33342 -72.71308 7070 ft 149 kts 193°
2026-04-21 16:45 -40.34379 -72.71648 7070 ft 149 kts 193°
2026-04-21 16:45 -40.35375 -72.71974 7072 ft 149 kts 193°
2026-04-21 16:45 -40.36396 -72.72309 7071 ft 149 kts 193°
2026-04-21 16:46 -40.37394 -72.72636 7070 ft 149 kts 193°
2026-04-21 16:46 -40.38386 -72.72961 7070 ft 149 kts 193°
2026-04-21 16:46 -40.39421 -72.73300 7070 ft 149 kts 193°
2026-04-21 16:46 -40.40421 -72.73628 7070 ft 149 kts 193°
2026-04-21 16:47 -40.41436 -72.73961 7070 ft 149 kts 193°
2026-04-21 16:47 -40.42430 -72.74288 7070 ft 149 kts 193°
2026-04-21 16:47 -40.43436 -72.74618 7070 ft 149 kts 193°
2026-04-21 16:47 -40.44435 -72.74946 7070 ft 149 kts 193°
2026-04-21 16:48 -40.45452 -72.75280 7070 ft 149 kts 193°
2026-04-21 16:48 -40.46466 -72.75613 7070 ft 149 kts 193°
2026-04-21 16:48 -40.47457 -72.75939 7070 ft 149 kts 193°
2026-04-21 16:48 -40.48482 -72.76276 7070 ft 149 kts 193°
2026-04-21 16:49 -40.49503 -72.76611 7070 ft 149 kts 193°
2026-04-21 16:49 -40.50489 -72.76936 7070 ft 149 kts 193°
2026-04-21 16:49 -40.51494 -72.77267 7070 ft 149 kts 193°
2026-04-21 16:49 -40.52508 -72.77601 7070 ft 149 kts 193°
2026-04-21 16:50 -40.53155 -72.77814 7070 ft 149 kts 193°
2026-04-21 16:50 -40.54144 -72.78140 7070 ft 149 kts 193°
2026-04-21 16:50 -40.55144 -72.78469 7070 ft 149 kts 193°
2026-04-21 16:50 -40.56166 -72.78806 7070 ft 149 kts 193°
2026-04-21 16:51 -40.57165 -72.79135 7070 ft 149 kts 193°
2026-04-21 16:51 -40.58173 -72.79468 7070 ft 149 kts 193°
2026-04-21 16:51 -40.59172 -72.79797 7070 ft 149 kts 193°
2026-04-21 16:51 -40.60188 -72.80132 7069 ft 149 kts 193°
2026-04-21 16:52 -40.61190 -72.80464 7068 ft 148 kts 193°
2026-04-21 16:52 -40.62194 -72.80795 7077 ft 147 kts 193°
2026-04-21 16:52 -40.63189 -72.81124 7073 ft 148 kts 193°
2026-04-21 16:52 -40.64198 -72.81457 7071 ft 149 kts 193°
2026-04-21 16:53 -40.65198 -72.81787 7071 ft 149 kts 193°
2026-04-21 16:53 -40.66204 -72.82120 7071 ft 149 kts 193°
2026-04-21 16:53 -40.67204 -72.82450 7071 ft 149 kts 193°
2026-04-21 16:53 -40.68197 -72.82779 7071 ft 149 kts 193°
2026-04-21 16:54 -40.69213 -72.83115 7071 ft 149 kts 193°
2026-04-21 16:54 -40.70211 -72.83445 7071 ft 149 kts 193°
2026-04-21 16:54 -40.71208 -72.83775 7070 ft 149 kts 193°
2026-04-21 16:54 -40.72227 -72.84113 7070 ft 149 kts 193°
2026-04-21 16:55 -40.73237 -72.84448 7070 ft 149 kts 193°
2026-04-21 16:55 -40.74240 -72.84780 7070 ft 149 kts 193°
2026-04-21 16:55 -40.75259 -72.85118 7070 ft 149 kts 193°
2026-04-21 16:55 -40.76285 -72.85458 7070 ft 149 kts 193°
2026-04-21 16:56 -40.77312 -72.85799 7070 ft 149 kts 193°
2026-04-21 16:56 -40.78316 -72.86132 7070 ft 149 kts 193°
2026-04-21 16:56 -40.79320 -72.86465 7070 ft 149 kts 193°
2026-04-21 16:56 -40.80327 -72.86800 7070 ft 149 kts 193°
2026-04-21 16:57 -40.81338 -72.87136 7070 ft 149 kts 193°
2026-04-21 16:57 -40.82330 -72.87465 7070 ft 149 kts 193°
2026-04-21 16:57 -40.83338 -72.87800 7070 ft 149 kts 193°
2026-04-21 16:57 -40.84347 -72.88136 7070 ft 149 kts 193°
2026-04-21 16:58 -40.85357 -72.88472 7070 ft 149 kts 193°
2026-04-21 16:58 -40.86363 -72.88806 7070 ft 149 kts 193°
2026-04-21 16:58 -40.87374 -72.89143 7070 ft 149 kts 193°
2026-04-21 16:58 -40.88372 -72.89475 7070 ft 149 kts 193°
2026-04-21 16:59 -40.89390 -72.89814 7070 ft 149 kts 193°
2026-04-21 16:59 -40.90388 -72.90147 7070 ft 149 kts 193°
2026-04-21 16:59 -40.91408 -72.90486 7070 ft 149 kts 193°
2026-04-21 16:59 -40.92403 -72.90818 7070 ft 149 kts 193°
2026-04-21 17:00 -40.93421 -72.91158 7070 ft 149 kts 193°
2026-04-21 17:00 -40.94433 -72.91448 7071 ft 149 kts 188°
2026-04-21 17:00 -40.95114 -72.91578 7071 ft 149 kts 186°
2026-04-21 17:00 -40.96495 -72.91785 7071 ft 149 kts 185°
2026-04-21 17:01 -40.97525 -72.91923 7071 ft 149 kts 185°
2026-04-21 17:01 -40.98550 -72.92055 7070 ft 149 kts 185°
2026-04-21 17:01 -40.99570 -72.92184 7070 ft 149 kts 185°
2026-04-21 17:01 -41.00614 -72.92315 7070 ft 149 kts 185°
2026-04-21 17:02 -41.01611 -72.92440 7014 ft 144 kts 185°
2026-04-21 17:02 -41.02621 -72.92565 6864 ft 146 kts 185°
2026-04-21 17:02 -41.03642 -72.92692 6715 ft 146 kts 185°
2026-04-21 17:02 -41.04651 -72.92817 6568 ft 147 kts 185°
2026-04-21 17:03 -41.05667 -72.92944 6420 ft 147 kts 185°
2026-04-21 17:03 -41.06700 -72.93072 6269 ft 148 kts 185°
2026-04-21 17:03 -41.07718 -72.93199 6121 ft 148 kts 185°
2026-04-21 17:03 -41.08744 -72.93326 5972 ft 148 kts 185°
2026-04-21 17:04 -41.09764 -72.93453 5824 ft 148 kts 185°
2026-04-21 17:04 -41.10802 -72.93582 5673 ft 148 kts 185°
2026-04-21 17:04 -41.11810 -72.93708 5526 ft 148 kts 185°
2026-04-21 17:04 -41.12502 -72.93794 5426 ft 148 kts 185°
2026-04-21 17:05 -41.13124 -72.93871 5328 ft 150 kts 185°
2026-04-21 17:05 -41.14168 -72.94000 5177 ft 151 kts 185°
2026-04-21 17:05 -41.15225 -72.94132 5029 ft 152 kts 185°
2026-04-21 17:05 -41.16281 -72.94264 4881 ft 153 kts 185°
2026-04-21 17:06 -41.17340 -72.94396 4733 ft 153 kts 185°
2026-04-21 17:06 -41.18422 -72.94531 4582 ft 154 kts 185°
2026-04-21 17:06 -41.19483 -72.94664 4434 ft 154 kts 185°
2026-04-21 17:06 -41.20558 -72.94798 4291 ft 159 kts 185°
2026-04-21 17:07 -41.21306 -72.94891 4197 ft 162 kts 185°
2026-04-21 17:07 -41.22804 -72.95078 4007 ft 166 kts 185°
2026-04-21 17:07 -41.23587 -72.95176 3944 ft 165 kts 185°
2026-04-21 17:07 -41.24723 -72.95318 3912 ft 161 kts 185°
2026-04-21 17:08 -41.25802 -72.95559 3905 ft 157 kts 198°
2026-04-21 17:08 -41.26809 -72.96117 3910 ft 153 kts 207°
2026-04-21 17:08 -41.27724 -72.96751 3909 ft 152 kts 210°
2026-04-21 17:08 -41.28661 -72.97449 3910 ft 151 kts 211°
2026-04-21 17:09 -41.30479 -72.98850 3911 ft 150 kts 211°
2026-04-21 17:09 -41.31365 -72.99541 3911 ft 149 kts 211°
2026-04-21 17:09 -41.32265 -73.00246 3911 ft 149 kts 211°
2026-04-21 17:10 -41.33166 -73.00952 3911 ft 149 kts 211°
2026-04-21 17:10 -41.34055 -73.01650 3911 ft 149 kts 211°
2026-04-21 17:10 -41.34949 -73.02352 3911 ft 149 kts 211°
2026-04-21 17:10 -41.35853 -73.03062 3911 ft 149 kts 211°
2026-04-21 17:11 -41.36745 -73.03764 3911 ft 149 kts 211°
2026-04-21 17:11 -41.37635 -73.04463 3911 ft 149 kts 211°
2026-04-21 17:11 -41.38521 -73.05160 3911 ft 149 kts 212°
2026-04-21 17:11 -41.39416 -73.05864 3911 ft 149 kts 212°
2026-04-21 17:12 -41.40313 -73.06571 3911 ft 149 kts 212°
2026-04-21 17:12 -41.41207 -73.07274 3911 ft 149 kts 212°
2026-04-21 17:12 -41.42085 -73.07965 3911 ft 149 kts 212°
2026-04-21 17:12 -41.42989 -73.08679 3911 ft 148 kts 212°
2026-04-21 17:13 -41.43874 -73.09377 3830 ft 149 kts 211°
2026-04-21 17:13 -41.44837 -73.09949 3665 ft 154 kts 200°
2026-04-21 17:13 -41.45857 -73.10418 3520 ft 157 kts 199°
2026-04-21 17:13 -41.46868 -73.10869 3431 ft 155 kts 199°
2026-04-21 17:14 -41.47892 -73.11323 3406 ft 149 kts 199°
2026-04-21 17:14 -41.48866 -73.11756 3402 ft 144 kts 199°
2026-04-21 17:14 -41.49792 -73.12190 3403 ft 139 kts 202°
2026-04-21 17:14 -41.50688 -73.12689 3339 ft 142 kts 204°
2026-04-21 17:15 -41.51622 -73.13222 3179 ft 149 kts 204°
2026-04-21 17:15 -41.52581 -73.13792 3032 ft 153 kts 207°
2026-04-21 17:15 -41.53538 -73.14452 2935 ft 152 kts 208°
2026-04-21 17:15 -41.54466 -73.15110 2996 ft 153 kts 209°
2026-04-21 17:16 -41.55414 -73.15785 2935 ft 154 kts 209°
2026-04-21 17:16 -41.56324 -73.16433 2977 ft 144 kts 209°
2026-04-21 17:16 -41.57189 -73.17046 2988 ft 139 kts 209°
2026-04-21 17:16 -41.58041 -73.17651 2992 ft 136 kts 209°
2026-04-21 17:17 -41.58869 -73.18237 2995 ft 134 kts 209°
2026-04-21 17:17 -41.59685 -73.18816 2996 ft 132 kts 209°
2026-04-21 17:17 -41.60504 -73.19397 3003 ft 135 kts 209°
2026-04-21 17:17 -41.61340 -73.19991 3007 ft 138 kts 209°
2026-04-21 17:18 -41.62264 -73.20338 2993 ft 143 kts 174°
2026-04-21 17:18 -41.63094 -73.19685 3001 ft 140 kts 122°
2026-04-21 17:18 -41.63425 -73.18496 3022 ft 138 kts 101°
2026-04-21 17:18 -41.63622 -73.17217 3008 ft 141 kts 97°
2026-04-21 17:19 -41.63780 -73.15916 3004 ft 142 kts 96°
2026-04-21 17:19 -41.63932 -73.14609 3002 ft 143 kts 96°
2026-04-21 17:19 -41.64087 -73.13278 3001 ft 144 kts 96°
2026-04-21 17:19 -41.64213 -73.11969 2996 ft 143 kts 87°
2026-04-21 17:20 -41.63828 -73.10850 3010 ft 128 kts 39°
2026-04-21 17:20 -41.63079 -73.10380 3000 ft 114 kts 17°
2026-04-21 17:20 -41.62336 -73.10108 2986 ft 107 kts 13°
2026-04-21 17:20 -41.61615 -73.09914 2988 ft 104 kts
2026-04-21 17:21 -41.60908 -73.09790 2993 ft 102 kts
2026-04-21 17:21 -41.60208 -73.09730 2996 ft 101 kts
2026-04-21 17:21 -41.59498 -73.09722 2999 ft 101 kts 360°
2026-04-21 17:21 -41.58788 -73.09749 2950 ft 107 kts 358°
2026-04-21 17:22 -41.58009 -73.09794 2869 ft 114 kts 358°
2026-04-21 17:22 -41.57199 -73.09836 2772 ft 119 kts 359°
2026-04-21 17:22 -41.56364 -73.09859 2639 ft 124 kts 360°
2026-04-21 17:22 -41.55480 -73.09855 2465 ft 128 kts
2026-04-21 17:23 -41.54581 -73.09823 2254 ft 131 kts
2026-04-21 17:23 -41.53716 -73.09778 2109 ft 120 kts
2026-04-21 17:23 -41.52887 -73.09731 1914 ft 118 kts
2026-04-21 17:23 -41.52077 -73.09689 1718 ft 117 kts
2026-04-21 17:24 -41.51271 -73.09654 1538 ft 116 kts
2026-04-21 17:24 -41.50469 -73.09625 1374 ft 114 kts
2026-04-21 17:24 -41.49682 -73.09599 1223 ft 113 kts
2026-04-21 17:24 -41.48893 -73.09573 1080 ft 112 kts
2026-04-21 17:25 -41.48120 -73.09546 946 ft 111 kts
2026-04-21 17:25 -41.47358 -73.09519 805 ft 111 kts
2026-04-21 17:25 -41.46583 -73.09491 656 ft 111 kts
2026-04-21 17:25 -41.45799 -73.09463 508 ft 112 kts
2026-04-21 17:26 -41.45030 -73.09436 354 ft 109 kts
2026-04-21 17:26 -41.44399 -73.09414 298 ft 73 kts
2026-04-21 17:26 -41.44120 -73.09414 297 ft 18 kts 318°
2026-04-21 17:26 -41.44119 -73.09464 297 ft 0 kts 237°
2026-04-21 17:27 -41.44121 -73.09469 297 ft 3 kts 237°
2026-04-21 17:27 -41.44143 -73.09506 297 ft 10 kts 221°
2026-04-21 17:27 -41.44241 -73.09663 297 ft 30 kts 205°
2026-04-21 17:28 -41.44381 -73.09665 297 ft 14 kts 180°
2026-04-21 17:28 -41.44405 -73.09639 297 ft 0 kts
2026-04-21 17:30 -41.44404 -73.09644 297 ft 107 kts
2026-04-21 17:31 -41.44321 -73.09720 297 ft 0 kts